Showing default

PERUSAT 1, 41770

Orbit data source: Space-Track

PERUSAT 1, 41770 is a payload satellite owned by MOD Peru (PE) in SSO that was launched on Fri, 16 Sep 2016 UTC via a VEGA launch vehicle from the French Guiana (FRGUI). Payload-class satellites include a variety of spacecraft equipped with specific instruments for various scientific and technological missions. These include communications satellites like Starlink; space stations such as the ISS; scientific satellites like the Hubble; Earth observation satellites from companies like Planet Labs, Umbra, and HawkEye 360; GPS; miniature CubeSats for education and research; and military/defense satellites.

Loading next visibility...
Identifier
41770, 2016-058A
Orbit
SSO
Last TLE update
9 hours ago
Origin
Manufacturer
Airbus/Toulouse
Mission
Operational Defense Imaging
Bus & Motor
ASTROBUS-S, Unknown motor
Mass
430 kg wet, ~400 kg dry
Launch date (UTC)
2016-09-16 (9 years ago)
Launch vehicle
VEGA
Launch site
French Guiana (FRGUI)
Object type
Payload
Rocket body
Debris
Shape & HBR
Hex Cyl + 3 Pan, 4.5 m
Radar Cross Section
3.025 m², Large (>1 m²)

Expand to show TLE details & history

TLE from 9 hours ago
0 PERUSAT 1
1 41770U 16058A   25173.21591859  .00000231  00000-0  59477-4 0  9999
2 41770  98.1878 247.0546 0001476  92.8287 267.3081 14.58549774466629
Epoch: 2025-06-22T05:10Z
TLE epoch observation values (Epoch: 2025-06-22T05:10:55.366Z)
Latitude
-0.00003°
Longitude
-101.31982°
Altitude
700.893 km
Speed
7.506 km/s
True Right ascension
16h 28m 13s
True Declination
0° 00' 00"
Sunlit
Object was in full shadow at epoch
Visualization orbit readout
Latitude
8.83301°
Longitude
80.32447°
Altitude
699.936 km
Speed
7.507 km/s
Apparent Right ascension
07h 32m 01s
Apparent Declination
-29° 08' 56"
Sunlit
Object is in daylight
Visualization observer readout
Local Sidereal Time
01:15:19
Azimuth
110.91° ESE
Elevation
-21.18°
Doppler factor
1
Orbital elements
Apogee altitude
695.987 km
Perigee altitude
693.899 km
Semi-major axis
7,073.08 km
Eccentricity
0.00015
Inclination
98.1878°
RAAN
247.0546°
Arg. of periapsis
92.8287°
True anomaly
Unknown
Mean anomaly
267.3081°
Eccentric anomaly
Unknown
Mean motion
3.64863 °/min
Orbital period
98.67 mins
BSTAR
0.000059477
Loading maneuver chart data...
Loading SW <> Apogee altitude chart data...
Loading historical data...
Loading historical data...
Loading historical data...
Loading historical data...
Loading historical data...
Loading historical data...
Loading historical data...

PERUSAT 1 Visibility forecast

Observer location: undefined°, undefined°

Span
Click to sort rows by Start time (UTC) header in descending order
Start Az.
Max El. time (UTC)
Max El. Az.
Max El.
End time (UTC)
End Az.
8 mins2025-06-22 17:16:44.476Z28.793° NE2025-06-22 17:20:44.476Z88.931° E32.829°2025-06-22 17:24:44.476Z165.006° S
5 mins2025-06-22 18:56:44.476Z321.295° NNW2025-06-22 18:58:44.476Z287.797° WNW19.125°2025-06-22 19:01:44.476Z247.754° W
7 mins2025-06-23 04:22:44.476Z129.619° SE2025-06-23 04:25:44.476Z62.139° ENE32.969°2025-06-23 04:29:44.476Z2.646° NNE
4 mins2025-06-23 06:01:44.476Z241.757° WSW2025-06-23 06:03:44.476Z274.623° WNW18.165°2025-06-23 06:05:44.476Z303.524° NW
|